#timestamp,LO_Frequency,Hit,StdDev 
1531180815.2,286046999.7,N
1531180835.1,286046999.8,N
1531180836.0,286046999.8,N
1531180855.8,286046999.7,N
1531180875.6,286047002.4,N
1531180895.5,286047001.5,N
1531180915.3,286047003.8,N
1531180935.2,286047004.0,N
1531180955.0,286047003.9,N
1531180955.9,286047003.9,N
1531180975.8,286047004.1,N
1531180995.6,286047003.9,N
1531181015.4,286047001.9,N
1531181035.3,286047004.4,N
1531181055.7,286047003.9,N
1531181075.5,286047004.2,N
1531181095.4,286047003.8,N
1531181115.2,286047004.0,N
1531181135.0,286047001.4,N
1531181135.9,286047001.4,N
1531181155.8,286047003.9,N
1531181175.6,286047001.7,N
1531181195.4,286047001.8,N
1531181215.3,286046999.7,N
1531181235.1,286047002.2,N
1531181255.9,286047002.3,N
1531181275.7,286047002.3,N
1531181295.5,286047002.1,N
1531181315.4,286047002.1,N
1531181335.2,286047001.8,N
1531181355.0,286047004.4,N
1531181355.9,286047004.4,N
1531181375.8,286047001.8,N
1531181395.6,286047002.4,N
1531181415.5,286047001.5,N
1531181435.3,286047002.5,N
1531181455.1,286047001.5,N
1531181475.9,286047001.5,N
1531181495.7,286047002.0,N
1531181515.5,286047002.6,N
1531181535.4,286047000.1,N
1531181555.2,286046999.8,N
1531181575.1,286047002.8,N
1531181576.0,286047002.8,N
1531181595.8,286047001.8,N
1531181615.6,286047002.2,N
1531181635.5,286047002.2,N
1531181655.3,286047001.6,N
1531181675.2,286047002.0,N
1531181695.9,286047002.4,N
1531181715.7,286046999.7,N
1531181735.6,286047002.4,N
1531181755.4,286047002.5,N
1531181775.2,286047002.3,N
1531181795.1,286047001.6,N
1531181796.0,286047001.6,N
1531181815.8,286047001.9,N
1531181835.7,286047001.4,N
1531181855.5,286047002.1,N
1531181875.3,286047002.7,N
1531181895.2,286047002.4,N
1531181915.0,286047000.1,N
1531181915.9,286047000.1,N
1531181935.8,286047001.0,N
1531181955.6,286047000.1,N
1531181975.4,286047002.2,N
1531181995.3,286046999.7,N
1531182015.1,286046999.7,N
1531182035.8,286047002.8,N
1531182055.7,286047002.2,N
1531182075.5,286047002.5,N
1531182095.4,286047002.6,N
1531182115.2,286047001.8,N
1531182135.0,286047004.3,Y
1531182135.9,286047004.3,P
1531182155.8,286046999.8,N
1531182175.6,286047002.3,N
1531182195.5,286047002.6,N
1531182215.3,286047002.7,N
1531182235.1,286047000.4,N
1531182255.9,286047000.6,N
1531182275.7,286047000.9,N
1531182295.5,286047001.2,N
1531182315.4,286047001.0,N
1531182335.2,286047000.3,N
1531182355.1,286047000.1,N
1531182356.0,286047000.1,N
1531182375.8,286047000.3,N
1531182395.6,286047000.4,N
1531182415.5,286047002.5,N
1531182435.3,286047002.4,N
1531182455.2,286047002.1,N
1531182475.9,286047002.2,N
1531182495.7,286047001.9,N
1531182515.6,286047002.3,N
1531182535.4,286047002.0,N
1531182555.2,286047002.1,N
1531182575.1,286047002.3,N
1531182576.0,286047002.3,N
1531182595.8,286047000.4,N
1531182615.6,286047000.6,N
1531182635.5,286047000.3,N
1531182655.3,286047000.1,N
1531182675.2,286047002.7,N
1531182695.9,286047002.3,N
1531182715.7,286047002.2,N
1531182735.6,286047001.8,N
1531182755.4,286047002.6,N
1531182775.2,286047001.6,N
1531182795.1,286047002.2,N
1531182796.0,286047002.2,N
1531182815.8,286047002.5,N
1531182835.7,286047002.8,Y
1531182855.5,286046998.7,P
1531182875.4,286046998.1,N
1531182895.2,286047001.2,N
1531182915.0,286046998.1,N
1531182915.9,286046998.1,N
1531182935.8,286046998.6,N
1531182955.6,286046998.3,N
1531182975.5,286046999.2,N
1531182995.3,286046999.5,N
1531183015.1,286046998.9,N
1531183035.9,286046999.4,N
1531183055.7,286046996.9,N
1531183075.7,286046996.5,N
1531183095.5,286046999.4,N
1531183115.4,286047001.1,N
1531183135.2,286047001.1,N
1531183155.3,286047001.0,N
1531183175.2,286046998.5,N
1531183195.0,286047000.6,N
1531183195.9,286047000.6,N
1531183215.8,286046999.0,N
1531183235.6,286046999.5,N
1531183255.4,286046997.1,N
1531183275.3,286046996.9,N
1531183295.1,286046998.7,N
1531183315.9,286046998.1,N
1531183335.7,286046998.9,N
1531183355.5,286046996.6,N
1531183375.4,286046999.1,N
1531183395.2,286046998.7,N
1531183415.0,286047001.1,N
1531183415.9,286047001.1,N
1531183435.8,286046998.1,N
1531183455.6,286046998.2,N
1531183475.5,286046998.9,N
1531183495.3,286046999.2,N
1531183515.1,286046997.1,N
1531183535.9,286046999.1,N
1531183555.4,286046999.5,N
1531183575.2,286046999.2,N
1531183595.0,286046999.4,N
1531183596.0,286046999.4,N
1531183615.8,286046999.1,N
1531183635.6,286046999.0,N
1531183655.5,286046999.6,N
1531183675.3,286046997.1,N
1531183695.1,286046996.9,N
1531183715.9,286046997.7,N
1531183735.7,286046999.4,N
1531183755.5,286046999.4,N
1531183775.4,286046999.4,N
1531183795.2,286046998.1,N
1531183815.1,286046999.2,N
1531183816.0,286046999.2,N
1531183835.8,286046999.1,N
1531183855.6,286047000.8,N
1531183875.5,286047000.3,N
1531183895.3,286047000.3,N
1531183915.2,286047000.3,N
1531183935.9,286047001.0,N
1531183955.7,286047000.9,N
1531183975.6,286046999.9,N
1531183995.4,286047000.5,N
1531184015.2,286047000.3,N
1531184035.1,286046998.2,N
1531184036.0,286046998.2,N
1531184055.8,286046998.2,N
1531184075.7,286047000.7,N
1531184095.5,286047000.3,N
1531184115.8,286047000.4,N
1531184135.2,286047000.6,N
1531184155.1,286047000.9,N
1531184156.0,286047000.9,N
1531184175.8,286047000.9,N
1531184195.7,286047000.7,N
1531184215.5,286047000.4,N
1531184235.3,286047000.1,N
1531184255.2,286047000.7,N
1531184275.0,286046999.9,N
1531184275.9,286046999.9,N
1531184295.7,286047000.2,N
1531184315.6,286047001.3,N
1531184335.4,286047004.0,Y
1531184355.3,286047004.1,P
1531184375.1,286047002.2,N
1531184376.0,286047002.2,N
1531184395.8,286047000.1,N
